AAUSAT-II

Last updated on Wed May 21 2025 00:03:44 GMT+0000 (Coordinated Universal Time)

1 32788U 08021F 25139.97047148 .08158600 26426-5 14044-2 0 9997 2 32788 97.5714 139.5734 0010482 221.9933 138.0559 16.32875487930171

Satellite not in orbit

AAUSAT-II